Time,TemperatureF,DewpointF,PressureIn,WindDirection,WindDirectionDegrees,WindSpeedMPH,WindSpeedGustMPH,Humidity,HourlyPrecipIn,Conditions,Clouds,dailyrainin,SoftwareType,DateUTC
2013-06-15 00:00:00,51.0,45.0,29.54,North,-999,-999.0,-999.0,81,-99.99,,,-99.99,,2013-06-14 23:00:00,
2013-06-15 00:42:00,51.0,45.0,29.54,North,-999,-999.0,-999.0,81,-99.99,,,-99.99,,2013-06-14 23:42:00,
2013-06-15 00:52:00,51.0,45.0,29.54,North,-999,-999.0,-999.0,81,-99.99,,,-99.99,,2013-06-14 23:52:00,
2013-06-15 01:00:00,49.0,46.0,29.51,North,-999,-999.0,-999.0,86,-99.99,,,-99.99,,2013-06-15 00:00:00,
2013-06-15 01:43:00,49.0,46.0,29.51,North,-999,-999.0,-999.0,86,-99.99,,,-99.99,,2013-06-15 00:43:00,
2013-06-15 01:52:00,49.0,46.0,29.51,North,-999,-999.0,-999.0,86,-99.99,,,-99.99,,2013-06-15 00:52:00,
2013-06-15 02:00:00,49.0,46.0,29.46,North,-999,-999.0,-999.0,89,-99.99,,,-99.99,,2013-06-15 01:00:00,
2013-06-15 02:42:00,49.0,46.0,29.46,North,-999,-999.0,-999.0,89,-99.99,,,-99.99,,2013-06-15 01:42:00,
2013-06-15 02:53:00,49.0,46.0,29.46,North,-999,-999.0,-999.0,89,-99.99,,,-99.99,,2013-06-15 01:53:00,
2013-06-15 03:00:00,51.0,46.0,29.42,North,-999,-999.0,-999.0,83,-99.99,,,-99.99,,2013-06-15 02:00:00,
2013-06-15 03:42:00,51.0,46.0,29.42,North,-999,-999.0,-999.0,83,-99.99,,,-99.99,,2013-06-15 02:42:00,
2013-06-15 03:53:00,51.0,46.0,29.42,North,-999,-999.0,-999.0,83,-99.99,,,-99.99,,2013-06-15 02:53:00,
2013-06-15 04:00:00,52.0,46.0,29.36,North,-999,-999.0,-999.0,81,-99.99,,,-99.99,,2013-06-15 03:00:00,
2013-06-15 04:43:00,52.0,46.0,29.36,North,-999,-999.0,-999.0,81,-99.99,,,-99.99,,2013-06-15 03:43:00,
2013-06-15 04:52:00,52.0,46.0,29.36,North,-999,-999.0,-999.0,81,-99.99,,,-99.99,,2013-06-15 03:52:00,
2013-06-15 05:00:00,52.0,46.0,29.35,North,-999,-999.0,-999.0,81,-99.99,,,-99.99,,2013-06-15 04:00:00,
2013-06-15 05:53:00,52.0,46.0,29.35,North,-999,-999.0,-999.0,81,-99.99,,,-99.99,,2013-06-15 04:53:00,
2013-06-15 06:00:00,53.0,46.0,29.34,North,-999,-999.0,-999.0,77,-99.99,,,-99.99,,2013-06-15 05:00:00,
2013-06-15 06:42:00,53.0,46.0,29.34,North,-999,-999.0,-999.0,77,-99.99,,,-99.99,,2013-06-15 05:42:00,
2013-06-15 06:52:00,53.0,46.0,29.34,North,-999,-999.0,-999.0,77,-99.99,,,-99.99,,2013-06-15 05:52:00,
2013-06-15 07:00:00,52.0,47.0,29.34,North,-999,-999.0,-999.0,84,-99.99,,,-99.99,,2013-06-15 06:00:00,
2013-06-15 07:43:00,52.0,47.0,29.34,North,-999,-999.0,-999.0,84,-99.99,,,-99.99,,2013-06-15 06:43:00,
2013-06-15 07:52:00,52.0,47.0,29.34,North,-999,-999.0,-999.0,84,-99.99,,,-99.99,,2013-06-15 06:52:00,
2013-06-15 08:00:00,52.0,48.0,29.34,North,-999,-999.0,-999.0,85,-99.99,,,-99.99,,2013-06-15 07:00:00,
2013-06-15 08:43:00,52.0,48.0,29.34,North,-999,-999.0,-999.0,85,-99.99,,,-99.99,,2013-06-15 07:43:00,
2013-06-15 08:53:00,52.0,48.0,29.34,North,-999,-999.0,-999.0,85,-99.99,,,-99.99,,2013-06-15 07:53:00,
2013-06-15 09:00:00,52.0,47.0,29.35,North,-999,-999.0,-999.0,83,-99.99,,,-99.99,,2013-06-15 08:00:00,
2013-06-15 09:42:00,52.0,47.0,29.35,North,-999,-999.0,-999.0,83,-99.99,,,-99.99,,2013-06-15 08:42:00,
2013-06-15 09:53:00,52.0,47.0,29.35,North,-999,-999.0,-999.0,83,-99.99,,,-99.99,,2013-06-15 08:53:00,
2013-06-15 10:00:00,52.0,48.0,29.35,North,-999,-999.0,-999.0,84,-99.99,,,-99.99,,2013-06-15 09:00:00,
2013-06-15 10:43:00,52.0,48.0,29.35,North,-999,-999.0,-999.0,84,-99.99,,,-99.99,,2013-06-15 09:43:00,
2013-06-15 10:52:00,52.0,48.0,29.35,North,-999,-999.0,-999.0,84,-99.99,,,-99.99,,2013-06-15 09:52:00,
2013-06-15 11:00:00,52.0,49.0,29.37,North,-999,-999.0,-999.0,89,-99.99,,,-99.99,,2013-06-15 10:00:00,
2013-06-15 11:43:00,52.0,49.0,29.37,North,-999,-999.0,-999.0,89,-99.99,,,-99.99,,2013-06-15 10:43:00,
2013-06-15 11:52:00,52.0,49.0,29.37,North,-999,-999.0,-999.0,89,-99.99,,,-99.99,,2013-06-15 10:52:00,
2013-06-15 13:00:00,55.0,46.0,29.39,North,-999,-999.0,-999.0,69,-99.99,,,-99.99,,2013-06-15 12:00:00,
2013-06-15 13:43:00,55.0,46.0,29.39,North,-999,-999.0,-999.0,69,-99.99,,,-99.99,,2013-06-15 12:43:00,
2013-06-15 13:52:00,55.0,46.0,29.39,North,-999,-999.0,-999.0,69,-99.99,,,-99.99,,2013-06-15 12:52:00,
2013-06-15 14:00:00,51.0,46.0,29.41,North,-999,-999.0,-999.0,82,-99.99,,,-99.99,,2013-06-15 13:00:00,
2013-06-15 14:43:00,51.0,46.0,29.41,North,-999,-999.0,-999.0,82,-99.99,,,-99.99,,2013-06-15 13:43:00,
2013-06-15 14:53:00,51.0,46.0,29.41,North,-999,-999.0,-999.0,82,-99.99,,,-99.99,,2013-06-15 13:53:00,
2013-06-15 15:00:00,53.0,46.0,29.45,North,-999,-999.0,-999.0,75,-99.99,,,-99.99,,2013-06-15 14:00:00,
2013-06-15 15:43:00,53.0,46.0,29.45,North,-999,-999.0,-999.0,75,-99.99,,,-99.99,,2013-06-15 14:43:00,
2013-06-15 15:53:00,53.0,46.0,29.45,North,-999,-999.0,-999.0,75,-99.99,,,-99.99,,2013-06-15 14:53:00,
2013-06-15 16:00:00,54.0,45.0,29.46,North,-999,-999.0,-999.0,71,-99.99,,,-99.99,,2013-06-15 15:00:00,
2013-06-15 16:42:00,54.0,45.0,29.46,North,-999,-999.0,-999.0,71,-99.99,,,-99.99,,2013-06-15 15:42:00,
2013-06-15 16:52:00,54.0,45.0,29.46,North,-999,-999.0,-999.0,71,-99.99,,,-99.99,,2013-06-15 15:52:00,
2013-06-15 17:00:00,53.0,45.0,29.47,North,-999,-999.0,-999.0,73,-99.99,,,-99.99,,2013-06-15 16:00:00,
2013-06-15 17:43:00,53.0,45.0,29.47,North,-999,-999.0,-999.0,73,-99.99,,,-99.99,,2013-06-15 16:43:00,
2013-06-15 17:53:00,53.0,45.0,29.47,North,-999,-999.0,-999.0,73,-99.99,,,-99.99,,2013-06-15 16:53:00,
2013-06-15 18:00:00,56.0,47.0,29.48,North,-999,-999.0,-999.0,74,-99.99,,,-99.99,,2013-06-15 17:00:00,
2013-06-15 18:43:00,56.0,47.0,29.48,North,-999,-999.0,-999.0,74,-99.99,,,-99.99,,2013-06-15 17:43:00,
2013-06-15 18:52:00,56.0,47.0,29.48,North,-999,-999.0,-999.0,74,-99.99,,,-99.99,,2013-06-15 17:52:00,
2013-06-15 19:00:00,54.0,51.0,29.50,North,-999,-999.0,-999.0,89,-99.99,,,-99.99,,2013-06-15 18:00:00,
2013-06-15 19:43:00,54.0,51.0,29.50,North,-999,-999.0,-999.0,89,-99.99,,,-99.99,,2013-06-15 18:43:00,
2013-06-15 19:53:00,54.0,51.0,29.50,North,-999,-999.0,-999.0,89,-99.99,,,-99.99,,2013-06-15 18:53:00,
2013-06-15 20:00:00,55.0,49.0,29.53,North,-999,-999.0,-999.0,82,-99.99,,,-99.99,,2013-06-15 19:00:00,
2013-06-15 20:43:00,55.0,49.0,29.53,North,-999,-999.0,-999.0,82,-99.99,,,-99.99,,2013-06-15 19:43:00,
2013-06-15 20:52:00,55.0,49.0,29.53,North,-999,-999.0,-999.0,82,-99.99,,,-99.99,,2013-06-15 19:52:00,
2013-06-15 21:00:00,54.0,51.0,29.55,North,-999,-999.0,-999.0,86,-99.99,,,-99.99,,2013-06-15 20:00:00,
2013-06-15 21:43:00,54.0,51.0,29.55,North,-999,-999.0,-999.0,86,-99.99,,,-99.99,,2013-06-15 20:43:00,
2013-06-15 21:52:00,54.0,51.0,29.55,North,-999,-999.0,-999.0,86,-99.99,,,-99.99,,2013-06-15 20:52:00,
2013-06-15 22:00:00,54.0,49.0,29.57,North,-999,-999.0,-999.0,82,-99.99,,,-99.99,,2013-06-15 21:00:00,
2013-06-15 22:42:00,54.0,49.0,29.57,North,-999,-999.0,-999.0,82,-99.99,,,-99.99,,2013-06-15 21:42:00,
2013-06-15 22:52:00,54.0,49.0,29.57,North,-999,-999.0,-999.0,82,-99.99,,,-99.99,,2013-06-15 21:52:00,
2013-06-15 23:00:00,53.0,49.0,29.60,North,-999,-999.0,-999.0,86,-99.99,,,-99.99,,2013-06-15 22:00:00,